Weather History for Longville, MN

Change the Weather History Date:

Friday, February 15, 2013

  Actual Average (KPWC) Record (KPWC)
Temperature  
Mean Temperature 5 °F -  
Max Temperature 12 °F 26 °F 39 °F (2002)
Min Temperature -2 °F 6 °F -23 °F (2001)
Degree Days  
Heating Degree Days 60    
Moisture  
Dew Point -1 °F    
Average Humidity 75    
Maximum Humidity 92    
Minimum Humidity 57    
Precipitation  
Precipitation 0.00 in - - ()
Sea Level Pressure  
Sea Level Pressure 30.21 in    
Wind  
Wind Speed 6 mph (WNW)    
Max Wind Speed 13 mph    
Max Gust Speed 17 mph    
Visibility 10 miles    
Events Snow    
Averages and records for this station are not official NWS values.
T = Trace of Precipitation, MM = Missing Value Source: NWS Daily Summary

Daily Weather History Graph

Daily Weather History Graph

Search for Another Location

Airport:

Trip Planner

Search our weather history database for the weather conditions in past years. The results will help you decide how hot, cold, wet, or windy it might be!

Date:

Astronomy

Feb. 15, 2013 Rise Set
Actual Time 7:20 AM CST 5:41 PM CST
Civil Twilight 6:49 AM CST 6:13 PM CST
Nautical Twilight 6:13 AM CST 6:48 PM CST
Astronomical Twilight 5:38 AM CST 7:23 PM CST
Moon 9:32 AM CST (2/15) No Moon Set
Length of Visible Light 11h 23m
Length of Day
10h 20m
Waxing Crescent, 30% of the Moon is Illuminated
Feb 15
Waxing Crescent
Feb 17
First Quarter
Feb 25
Full
Mar 4
Last Quarter
Mar 11
New

Hourly Weather History & Observations

Time (CST) Temp. Windchill Dew Point Humidity Pressure Visibility Wind Dir Wind Speed Gust Speed Precip Events Conditions
12:16 AM 3.2 °F -9.1 °F -0.4 °F 85% 30.15 in 10.0 mi NW 6.9 mph - N/A   Clear
12:36 AM 3.2 °F -7.8 °F -0.4 °F 85% 30.15 in 10.0 mi WNW 5.8 mph - N/A   Clear
12:56 AM 3.2 °F -7.8 °F -0.4 °F 85% 30.15 in 10.0 mi WNW 5.8 mph - N/A   Clear
1:16 AM 3.2 °F -7.8 °F -0.4 °F 85% 30.16 in 10.0 mi WNW 5.8 mph - N/A   Clear
1:36 AM 3.2 °F -7.8 °F -0.4 °F 85% 30.16 in 10.0 mi WNW 5.8 mph - N/A   Clear
1:56 AM 3.2 °F -7.8 °F -0.4 °F 85% 30.16 in 10.0 mi WNW 5.8 mph - N/A   Clear
2:16 AM 1.4 °F -9.9 °F -0.4 °F 92% 30.16 in 10.0 mi WNW 5.8 mph - N/A   Clear
2:36 AM 1.4 °F -11.3 °F -0.4 °F 92% 30.17 in 10.0 mi WNW 6.9 mph - N/A   Clear
2:56 AM 1.4 °F -8.3 °F -0.4 °F 92% 30.17 in 10.0 mi WNW 4.6 mph - N/A   Clear
3:16 AM 1.4 °F -6.2 °F -0.4 °F 92% 30.17 in 10.0 mi WNW 3.5 mph - N/A   Clear
3:36 AM 1.4 °F -9.9 °F -0.4 °F 92% 30.17 in 10.0 mi WNW 5.8 mph - N/A   Clear
3:56 AM 1.4 °F -11.3 °F -0.4 °F 92% 30.17 in 10.0 mi WNW 6.9 mph - N/A   Clear
4:16 AM 1.4 °F -11.3 °F -2.2 °F 85% 30.17 in 10.0 mi WNW 6.9 mph - N/A   Clear
4:36 AM 1.4 °F -8.3 °F -2.2 °F 85% 30.17 in 10.0 mi WNW 4.6 mph - N/A   Clear
4:56 AM -0.4 °F -10.4 °F -2.2 °F 92% 30.18 in 10.0 mi WNW 4.6 mph - N/A   Clear
5:16 AM -0.4 °F -12.0 °F -2.2 °F 92% 30.18 in 10.0 mi WNW 5.8 mph - N/A   Clear
5:36 AM -0.4 °F -10.4 °F -2.2 °F 92% 30.19 in 10.0 mi WNW 4.6 mph - N/A   Clear
5:56 AM -0.4 °F -10.4 °F -4.0 °F 85% 30.19 in 10.0 mi WNW 4.6 mph - N/A   Clear
6:16 AM -2.2 °F -12.5 °F -4.0 °F 92% 30.20 in 10.0 mi WNW 4.6 mph - N/A   Clear
6:36 AM -0.4 °F -10.4 °F -4.0 °F 85% 30.20 in 10.0 mi NW 4.6 mph - N/A   Clear
6:56 AM -0.4 °F - -4.0 °F 85% 30.21 in 10.0 mi Calm Calm - N/A   Clear
7:16 AM -2.2 °F -10.4 °F -5.8 °F 85% 30.21 in 10.0 mi WNW 3.5 mph - N/A   Clear
7:36 AM -2.2 °F -14.2 °F -5.8 °F 85% 30.22 in 10.0 mi WNW 5.8 mph - N/A   Clear
7:56 AM -2.2 °F -12.5 °F -5.8 °F 85% 30.23 in 10.0 mi WNW 4.6 mph - N/A   Clear
8:16 AM -2.2 °F -12.5 °F -5.8 °F 85% 30.23 in 10.0 mi WNW 4.6 mph - N/A   Clear
8:36 AM -0.4 °F -12.0 °F -4.0 °F 85% 30.24 in 10.0 mi NW 5.8 mph - N/A   Clear
8:56 AM -0.4 °F -12.0 °F -4.0 °F 85% 30.25 in 7.0 mi WNW 5.8 mph - N/A   Clear
9:15 AM 1.4 °F -6.2 °F -4.0 °F 78% 30.24 in 10.0 mi WNW 3.5 mph - N/A   Clear
9:35 AM 1.4 °F -11.3 °F -4.0 °F 78% 30.24 in 10.0 mi WNW 6.9 mph - N/A   Clear
9:56 AM 3.2 °F -4.2 °F -2.2 °F 78% 30.24 in 10.0 mi NW 3.5 mph - N/A   Clear
10:16 AM 3.2 °F -10.3 °F -2.2 °F 78% 30.25 in 10.0 mi West 8.1 mph - N/A   Clear
10:36 AM 5.0 °F -4.1 °F -2.2 °F 72% 30.25 in 10.0 mi NW 4.6 mph - N/A   Clear
10:56 AM 6.8 °F -4.8 °F -2.2 °F 67% 30.25 in 10.0 mi NW 6.9 mph - N/A   Clear
11:15 AM 6.8 °F -4.8 °F -2.2 °F 67% 30.25 in 10.0 mi WNW 6.9 mph - N/A   Clear
11:56 AM 8.6 °F -3.7 °F -0.4 °F 67% 30.25 in 10.0 mi NW 8.1 mph - N/A   Clear
12:16 PM 10.4 °F -2.4 °F -0.4 °F 62% 30.25 in 10.0 mi WNW 9.2 mph - N/A   Clear
12:36 PM 10.4 °F -1.5 °F -0.4 °F 62% 30.24 in 10.0 mi WNW 8.1 mph - N/A   Clear
12:56 PM 12.2 °F 0.7 °F -0.4 °F 57% 30.24 in 10.0 mi WNW 8.1 mph - N/A   Clear
1:15 PM 12.2 °F -1.0 °F -0.4 °F 57% 30.24 in 10.0 mi WNW 10.4 mph - N/A   Clear
1:36 PM 12.2 °F -2.5 °F -0.4 °F 57% 30.24 in 10.0 mi WNW 12.7 mph - N/A   Clear
1:56 PM 12.2 °F -1.0 °F -0.4 °F 57% 30.24 in 10.0 mi WNW 10.4 mph 17.3 mph N/A   Clear
2:16 PM 12.2 °F -1.0 °F -0.4 °F 57% 30.23 in 7.0 mi NW 10.4 mph - N/A   Clear
2:36 PM 12.2 °F 1.7 °F -0.4 °F 57% 30.23 in 10.0 mi NNW 6.9 mph - N/A   Scattered Clouds
2:56 PM 12.2 °F 0.7 °F -0.4 °F 57% 30.23 in 10.0 mi NW 8.1 mph - N/A   Scattered Clouds
3:16 PM 12.2 °F 1.7 °F -0.4 °F 57% 30.22 in 10.0 mi NW 6.9 mph - N/A   Scattered Clouds
3:36 PM 12.2 °F 1.7 °F 1.4 °F 62% 30.23 in 10.0 mi WNW 6.9 mph - N/A   Scattered Clouds
3:56 PM 12.2 °F -0.2 °F 1.4 °F 62% 30.23 in 10.0 mi WNW 9.2 mph - N/A   Clear
4:16 PM 12.2 °F -0.2 °F -0.4 °F 57% 30.22 in 10.0 mi WNW 9.2 mph - N/A   Clear
4:36 PM 12.2 °F 2.9 °F -0.4 °F 57% 30.22 in 10.0 mi NW 5.8 mph - N/A   Clear
4:56 PM 10.4 °F -1.5 °F 1.4 °F 67% 30.22 in 10.0 mi NW 8.1 mph - N/A   Clear
5:16 PM 10.4 °F -1.5 °F 1.4 °F 67% 30.23 in 10.0 mi WNW 8.1 mph - N/A   Clear
5:36 PM 10.4 °F 2.2 °F 1.4 °F 67% 30.23 in 10.0 mi NW 4.6 mph - N/A   Scattered Clouds
5:56 PM 8.6 °F -1.3 °F -0.4 °F 67% 30.23 in 10.0 mi West 5.8 mph - N/A   Scattered Clouds
6:16 PM 8.6 °F 2.0 °F -0.4 °F 67% 30.23 in 10.0 mi WNW 3.5 mph - N/A   Clear
6:36 PM 6.8 °F -2.0 °F -0.4 °F 72% 30.22 in 10.0 mi WNW 4.6 mph - N/A   Mostly Cloudy
6:56 PM 8.6 °F 0.1 °F 1.4 °F 73% 30.22 in 10.0 mi WNW 4.6 mph - N/A   Overcast
7:16 PM 8.6 °F 0.1 °F 1.4 °F 73% 30.21 in 10.0 mi WNW 4.6 mph - N/A   Overcast
7:36 PM 8.6 °F 0.1 °F 1.4 °F 73% 30.20 in 10.0 mi West 4.6 mph - N/A   Overcast
7:56 PM 8.6 °F -2.6 °F 1.4 °F 73% 30.20 in 10.0 mi West 6.9 mph - N/A   Overcast
8:16 PM 8.6 °F -1.3 °F 1.4 °F 73% 30.20 in 10.0 mi WNW 5.8 mph - N/A   Overcast
8:36 PM 8.6 °F -1.3 °F 1.4 °F 73% 30.20 in 10.0 mi WNW 5.8 mph - N/A   Overcast
8:55 PM 8.6 °F -2.6 °F 1.4 °F 73% 30.20 in 10.0 mi WNW 6.9 mph - N/A   Overcast
9:16 PM 8.6 °F -1.3 °F 1.4 °F 73% 30.20 in 10.0 mi WNW 5.8 mph - N/A   Overcast
9:36 PM 8.6 °F -2.6 °F 1.4 °F 73% 30.20 in 10.0 mi WNW 6.9 mph - N/A   Overcast
9:55 PM 8.6 °F -1.3 °F 3.2 °F 79% 30.19 in 10.0 mi WNW 5.8 mph - N/A   Overcast
10:16 PM 8.6 °F 0.1 °F 1.4 °F 73% 30.19 in 10.0 mi NW 4.6 mph - N/A   Overcast
10:36 PM 8.6 °F -1.3 °F 1.4 °F 73% 30.19 in 10.0 mi WNW 5.8 mph - N/A   Overcast
10:55 PM 8.6 °F - 1.4 °F 73% 30.19 in 10.0 mi Calm Calm - N/A   Overcast
11:15 PM 8.6 °F -1.3 °F 3.2 °F 79% 30.18 in 7.0 mi WNW 5.8 mph - N/A Snow Light Snow
11:35 PM 8.6 °F -2.6 °F 1.4 °F 73% 30.17 in 10.0 mi NW 6.9 mph - N/A   Overcast
11:55 PM 8.6 °F -1.3 °F 1.4 °F 73% 30.17 in 7.0 mi NW 5.8 mph - N/A Snow Light Snow